STARLINK-31708, 59439

Orbit data source: Space-Track

STARLINK-31708, 59439 is a payload satellite owned by SpaceX/Seattle (US) in LEO that was launched on Sun, 07 Apr 2024 UTC via an FALCON 9 launch vehicle from the Air Force Western Test Range (AFWTR). Payload-class satellites include a variety of spacecraft equipped with specific instruments for various scientific and technological missions. These include communications satellites like Starlink; space stations such as the ISS; scientific satellites like the Hubble; Earth observation satellites from companies like Planet Labs, Umbra, and HawkEye 360; GPS; miniature CubeSats for education and research; and military/defense satellites.

Loading next visibility...
Identifier
59439, 2024-065U
Orbit
LEO
Country
Flag of USUS
Related business
Manufacturer
SpaceX/Seattle
Mission
Operational Commercial Communications
Bus & Motor
STARLINK V2M, Unknown motor
Mass
730 kg wet, ~700 kg dry
Launch date (UTC)
2024-04-07 (2 years ago)
Launch vehicle
FALCON 9
Launch site
Air Force Western Test Range (AFWTR)
Object type
Payload
Rocket body
Debris
Shape & HBR
Box + 2 Pan, 17.7 m
Radar Cross Section
33.884 m², Large (>1 m²)

Expand to show TLE details & history
Last TLE update: 2 days ago

TLE from 2 days ago
0 STARLINK-31708
1 59439U 24065U   26171.36907837  .00035127  00000-0  11831-2 0  9991
2 59439  53.1602 164.4835 0001362  79.8448 280.2707 15.30455854124656
Epoch: 2026-06-20T08:51Z
TLE epoch observation values (Epoch: 2026-06-20T08:51:28.371Z)
Latitude
0.00004°
Longitude
123.03062°
Altitude
475.185 km
Speed
7.63 km/s
True Right ascension
10h 57m 56s
True Declination
0° 00' 00"
Sunlit
Object was in daylight at epoch
Visualization orbit readout
Latitude
Unknown
Longitude
Unknown
Altitude
Unknown
Speed
Unknown
Apparent Right ascension
Unknown
Apparent Declination
Unknown
Sunlit
N/A
Visualization observer readout
Local Sidereal Time
21:34:35
Azimuth
Unknown
Elevation
Unknown
Doppler factor
Unknown
Orbital elements
Apogee altitude
475.641 km
Perigee altitude
473.774 km
Semi-major axis
6,852.845 km
Eccentricity
0.00014
Inclination
53.1602°
RAAN
164.4835°
Arg. of periapsis
79.8448°
True anomaly
280.25534°
Mean anomaly
280.2707°
Eccentric anomaly
280.26302°
Mean motion
3.82593 °/min
Orbital period
94.09 mins
BSTAR
0.0011831
Loading maneuver chart data...
Computing Atmospheric mass density...
Loading historical data...
Loading historical data...
Loading historical data...
Loading historical data...
Loading historical data...
Loading historical data...
Loading historical data...

Documentation

Showing up to 5 results
|